Tulsa Jones, OK

1:47 AM CDT on June 22, 2018 (GMT -0500)
Jones Jr.

Weather History for KRVS - June, 2018

Change the Weather History Date:

Thursday, June 14, 2018

  Actual Average (KTUL) Record (KTUL)
Temperature  
Mean Temperature 84 °F -  
Max Temperature 97 °F 88 °F 107 °F (1911)
Min Temperature 73 °F 68 °F 51 °F (1942)
Cooling Degree Days 20    
Growing Degree Days 34 (Base 50)    
Moisture  
Dew Point 68 °F    
Average Humidity 60    
Maximum Humidity 90    
Minimum Humidity 36    
Precipitation  
Precipitation 0.00 in - - ()
Sea Level Pressure  
Sea Level Pressure 29.94 in    
Wind  
Wind Speed 5 mph (South)    
Max Wind Speed 15 mph    
Max Gust Speed 21 mph    
Visibility 10 miles    
Events      
Averages and records for this station are not official NWS values.
T = Trace of Precipitation, MM = Missing Value Source: NWS Daily Summary

Daily Weather History Graph

Daily Weather History Graph

Search for Another Location

Airport or City:

Astronomy

Jun. 14, 2018 Rise Set
Actual Time 6:06 AM CDT 8:42 PM CDT
Civil Twilight 5:36 AM CDT 9:12 PM CDT
Nautical Twilight 4:58 AM CDT 9:49 PM CDT
Astronomical Twilight 4:17 AM CDT 10:31 PM CDT
Moon 7:03 AM CDT (6/14) 9:45 PM CDT (6/14)
Length of Visible Light 15h 36m
Length of Day
14h 35m
New Moon, 1% of the Moon is Illuminated
Jun 14
New Moon
Jun 20
First Quarter
Jun 27
Full
Jul 6
Last Quarter
Jul 12
New

Hourly Weather History & Observations

Time (CDT) Temp. Heat Index Dew Point Humidity Pressure Visibility Wind Dir Wind Speed Gust Speed Precip Events Conditions
12:53 AM 77.0 °F - 71.1 °F 82% 29.98 in 10.0 mi Calm Calm - N/A   Clear
1:53 AM 75.0 °F - 71.1 °F 87% 29.97 in 10.0 mi Calm Calm - N/A   Clear
2:53 AM 75.0 °F - 71.1 °F 87% 29.96 in 10.0 mi Calm Calm - N/A   Clear
3:53 AM 73.9 °F - 70.0 °F 87% 29.95 in 10.0 mi Calm Calm - N/A   Clear
4:53 AM 73.0 °F - 70.0 °F 90% 29.96 in 10.0 mi Calm Calm - N/A   Clear
5:53 AM 73.0 °F - 68.0 °F 84% 29.97 in 10.0 mi ESE 3.5 mph - N/A   Clear
6:53 AM 75.9 °F - 68.0 °F 76% 29.98 in 10.0 mi SE 5.8 mph - N/A   Clear
7:53 AM 80.1 °F 82.7 °F 68.0 °F 67% 29.99 in 10.0 mi Variable 5.8 mph - N/A   Clear
8:53 AM 82.9 °F 85.8 °F 68.0 °F 60% 29.99 in 10.0 mi SSW 8.1 mph - N/A   Clear
9:53 AM 86.0 °F 90.1 °F 69.1 °F 57% 29.98 in 10.0 mi SSW 10.4 mph - N/A   Clear
10:53 AM 89.1 °F 93.7 °F 69.1 °F 52% 29.96 in 10.0 mi SSW 8.1 mph - N/A   Clear
11:53 AM 91.0 °F 95.6 °F 69.1 °F 48% 29.96 in 10.0 mi SSW 10.4 mph - N/A   Clear
12:53 PM 95.0 °F 99.5 °F 68.0 °F 41% 29.95 in 10.0 mi South 15.0 mph 20.7 mph N/A   Clear
1:53 PM 95.0 °F 99.5 °F 68.0 °F 41% 29.94 in 10.0 mi South 15.0 mph 19.6 mph N/A   Clear
2:53 PM 96.1 °F 101.0 °F 68.0 °F 40% 29.93 in 10.0 mi South 10.4 mph - N/A   Clear
3:53 PM 96.1 °F 98.8 °F 64.9 °F 36% 29.91 in 10.0 mi SSW 9.2 mph - N/A   Clear
4:53 PM 96.1 °F 98.8 °F 64.9 °F 36% 29.90 in 10.0 mi South 15.0 mph - N/A   Clear
5:53 PM 95.0 °F 97.4 °F 64.9 °F 37% 29.88 in 10.0 mi South 12.7 mph - N/A   Clear
6:53 PM 93.9 °F 97.5 °F 66.9 °F 41% 29.87 in 10.0 mi South 8.1 mph - N/A   Clear
7:53 PM 91.0 °F 93.8 °F 66.0 °F 44% 29.87 in 10.0 mi South 5.8 mph - N/A   Clear
8:53 PM 82.0 °F 85.5 °F 69.1 °F 65% 29.87 in 10.0 mi SSW 3.5 mph - N/A   Clear
9:53 PM 81.0 °F 84.1 °F 69.1 °F 67% 29.89 in 10.0 mi South 3.5 mph - N/A   Clear
10:53 PM 84.0 °F 87.8 °F 69.1 °F 61% 29.93 in 10.0 mi SSE 4.6 mph - N/A   Clear
11:53 PM 82.0 °F 84.9 °F 68.0 °F 62% 29.92 in 10.0 mi SSW 4.6 mph - N/A   Clear